Tracking 27112 objects as of 28-Mar-2023
HD Live streaming from Space Station
objects crossing your sky now

STARLINK-4092

Track STARLINK-4092 now!
10-day predictions
STARLINK-4092 is classified as:


NORAD ID: 52838
Int'l Code: 2022-062J
Perigee: 545.9 km
Apogee: 547.7 km
Inclination: 53.2 °
Period: 95.4 minutes
Semi major axis: 6917 km
RCS: Unknown
Launch date: June 17, 2022
Source: United States (US)
Launch site: AIR FORCE EASTERN TEST RANGE (AFETR)
Your satellite tracking list
Your tracking list is empty




NASA's NSSDC Master Catalog

Two Line Element Set (TLE):
1 52838U 22062J   23086.56046759  .00029682  00000-0  18739-2 0  9996
2 52838  53.2147 194.0180 0001302  64.9490 295.1637 15.08865618 43515
Source of the keplerian elements: AFSPC